Baghdad,

2:35 PM +03 on September 23, 2017 (GMT +0300)
Baghdad

Weather History for KQTZ - September, 2013

Change the Weather History Date:

Friday, September 20, 2013

  Actual Average Record
Temperature  
Mean Temperature 86 °F -  
Max Temperature 100 °F - - ()
Min Temperature 73 °F - - ()
Cooling Degree Days 22    
Growing Degree Days 36 (Base 50)    
Moisture  
Dew Point 47 °F    
Average Humidity 25    
Maximum Humidity 44    
Minimum Humidity 13    
Precipitation  
Precipitation 0.00 in - - ()
Sea Level Pressure  
Sea Level Pressure 29.75 in    
Wind  
Wind Speed 4 mph ()    
Max Wind Speed 10 mph    
Max Gust Speed 17 mph    
Visibility 6.2 miles    
Events      
T = Trace of Precipitation, MM = Missing Value Source: Averaged Metar Reports

Daily Weather History Graph

Daily Weather History Graph

Search for Another Location

Airport or City:

Trip Planner

Search our weather history database for the weather conditions in past years. The results will help you decide how hot, cold, wet, or windy it might be!

Date:

Astronomy

Sep. 20, 2013 Rise Set
Actual Time 5:49 AM +03 6:02 PM +03
Civil Twilight 5:25 AM +03 6:27 PM +03
Nautical Twilight 4:56 AM +03 6:56 PM +03
Astronomical Twilight 4:26 AM +03 7:25 PM +03
Moon 6:29 PM +03 (9/20) 6:35 AM +03 (9/20)
Length of Visible Light 13h 02m
Length of Day
12h 12m
Full, 99% of the Moon is Illuminated
Sep 20
Full
Sep 27
Last Quarter
Oct 5
New
Oct 12
First Quarter
Oct 19
Full

Hourly Weather History & Observations

Time (+03) Temp. Dew Point Humidity Pressure Visibility Wind Dir Wind Speed Gust Speed Precip Events Conditions
12:55 AM 84.2 °F 44.6 °F 25% 29.71 in 6.2 mi SSE 2.3 mph - N/A   Clear
1:55 AM 82.4 °F 44.6 °F 26% 29.71 in 6.2 mi South 1.2 mph - N/A   Clear
2:55 AM 78.8 °F 48.2 °F 34% 29.72 in 6.2 mi West 4.6 mph - N/A   Clear
3:55 AM 78.8 °F 48.2 °F 34% 29.72 in 6.2 mi WNW 3.5 mph - N/A   Clear
4:55 AM 77.0 °F 50.0 °F 39% 29.73 in 6.2 mi Variable 3.5 mph - N/A   Clear
5:55 AM 73.4 °F 50.0 °F 44% 29.74 in 6.2 mi Variable 4.6 mph - N/A   Clear
6:55 AM 75.2 °F 51.8 °F 44% 29.75 in 6.2 mi West 5.8 mph - N/A   Clear
7:55 AM 80.6 °F 51.8 °F 37% 29.77 in 6.2 mi Variable 4.6 mph - N/A   Clear
8:55 AM 87.8 °F 51.8 °F 29% 29.77 in 6.2 mi Variable 4.6 mph - N/A   Clear
9:55 AM 93.2 °F 50.0 °F 23% 29.79 in 6.2 mi Variable 5.8 mph - N/A   Clear
10:55 AM 96.8 °F 51.8 °F 22% 29.78 in 6.2 mi Variable 6.9 mph - N/A   Partly Cloudy
11:55 AM 98.6 °F 48.2 °F 18% 29.77 in 6.2 mi NW 8.1 mph 17.3 mph N/A   Partly Cloudy
12:55 PM 98.6 °F 44.6 °F 16% 29.77 in 6.2 mi NW 8.1 mph 17.3 mph N/A   Partly Cloudy
1:55 PM 100.4 °F 41.0 °F 13% 29.76 in 6.2 mi NNW 9.2 mph 16.1 mph N/A   Partly Cloudy
2:55 PM 100.4 °F 42.8 °F 14% 29.75 in 6.2 mi NW 10.4 mph 15.0 mph N/A   Partly Cloudy
3:55 PM 98.6 °F 42.8 °F 15% 29.74 in 6.2 mi Variable 5.8 mph - N/A   Clear
4:55 PM 98.6 °F 42.8 °F 15% 29.74 in 6.2 mi NW 5.8 mph - N/A   Partly Cloudy
5:55 PM 95.0 °F 44.6 °F 18% 29.75 in 6.2 mi WNW 2.3 mph - N/A   Partly Cloudy
6:55 PM 95.0 °F 44.6 °F 18% 29.75 in 6.2 mi NNW 3.5 mph - N/A   Partly Cloudy
7:55 PM 91.4 °F 46.4 °F 21% 29.77 in 6.2 mi SW 1.2 mph - N/A   Partly Cloudy
8:55 PM 89.6 °F 46.4 °F 22% 29.77 in 6.2 mi SW 1.2 mph - N/A   Partly Cloudy
9:55 PM 87.8 °F 46.4 °F 24% 29.76 in 6.2 mi Calm Calm - N/A   Partly Cloudy
10:55 PM 86.0 °F 48.2 °F 27% 29.75 in 6.2 mi North 1.2 mph - N/A   Clear
11:55 PM 84.2 °F 48.2 °F 29% 29.75 in 6.2 mi Calm Calm - N/A   Clear